Regional Weather Roundup
Issued by NWS

Home | Current Version | Previous Version | Graphics & Text | Print | Product List | Glossary Off
Versions: 1 2 3 4 5 6 7 8 9 10 11 12 13 14 15 16 17 18 19 20 21 22 23 24 25 26 27 28 29 30 31 32 33 34 35 36 37 38 39 40 41 42 43 44 45 46 47 48 49 50

535
ASUS43 KMKX 291000
RWRWI

WISCONSIN REGIONAL WEATHER ROUNDUP
NATIONAL WEATHER SERVICE MILWAUKEE/SULLIVAN WI
500 AM CDT MON MAY 29 2017

NOTE: "FAIR" INDICATES FEW OR NO CLOUDS BELOW 12,000 FEET WITH NO
SIGNIFICANT WEATHER AND/OR OBSTRUCTIONS TO VISIBILITY.

WIZ001-002-006>008-014>016-023>028-291100-
NORTHWEST WISCONSIN

CITY           SKY/WX    TMP DP  RH WIND       PRES   REMARKS
SUPERIOR ARPT  NOT AVBL
ASHLAND        CLOUDY    52  48  86 W9        29.62R
HAYWARD        MOCLDY    50  47  89 SW3       29.65S
SIREN          CLOUDY    52  49  90 W8        29.69R
CUMBERLAND     CLOUDY    50  46  87 W10       29.68S
RICE LAKE      CLOUDY    52  48  87 W6        29.69S
CHETEK         CLOUDY    51  49  90 W3        29.68R
LADYSMITH      MOCLDY    50  47  92 SW5       29.67F
EAU CLAIRE     NOT AVBL
MENOMONIE      MOCLDY    54  49  85 W6        29.70R
NEW RICHMOND   CLOUDY    52  50  93 W12       29.71S
OSCEOLA        CLOUDY    53  53 100 W8        29.74S
$$

WIZ003>005-009-010-017-018-291100-
NORTH CENTRAL WISCONSIN

CITY           SKY/WX    TMP DP  RH WIND       PRES   REMARKS
MANITOWISH WTR CLOUDY    47  47 100 SW3       29.62S
ARBOR VITAE    MOCLDY    49  47  93 W6        29.62F
WOODRUFF       MOCLDY    49  47  93 W6        29.62F
RHINELANDER    CLEAR     48  46  93 W7        29.64F
EAGLE RIVER    CLEAR     45  45 100 SW5       29.62S
LAND O LAKES   MOCLDY    47  47  97 SW5       29.63S
PHILLIPS       CLOUDY    47  47  97 SW5       29.64F
TOMAHAWK       CLEAR     48  45  90 CALM      29.65F
MEDFORD        CLOUDY    49  46  86 W3        29.66S
MERRILL        MOCLDY    50  47  88 SW5       29.66S
$$

WIZ029-030-035-036-043>047-291100-
CENTRAL WISCONSIN

CITY           SKY/WX    TMP DP  RH WIND       PRES   REMARKS
WAUSAU         CLOUDY    52  46  80 W9        29.66S
MOSINEE        CLOUDY    50  50 100 SW5       29.69S
MARSHFIELD     CLEAR     49  45  86 SW8       29.68R
STEVENS POINT  CLOUDY    50  48  94 CALM      29.69S
WAUPACA        CLEAR     53  49  87 CALM      29.68F
WAUTOMA        CLEAR     50  48  93 W6        29.70S
WISC RAPIDS    CLEAR     51  46  83 W6        29.70S
CAMP DOUGLAS   CLEAR     43  43 100 CALM      29.71S
$$

WIZ011>013-019>022-031-037>040-048>050-291100-
NORTHEAST WISCONSIN

CITY           SKY/WX    TMP DP  RH WIND       PRES   REMARKS
ANTIGO         MOCLDY    47  46  97 SW7       29.67R
SHAWANO        PTCLDY    55  49  80 CALM      29.67S
OCONTO         CLOUDY    52  47  83 SW6       29.65S
STURGEON BAY   MOCLDY    54  49  83 SW7       29.67R
GREEN BAY      CLOUDY    55  50  83 SW5       29.67S
MANITOWOC      NOT AVBL
APPLETON       MOCLDY    54  45  71 SW6       29.67S
CLINTONVILLE   PTCLDY    54  45  71 W3        29.67S
OSHKOSH        MOCLDY    52  47  83 S6        29.68S
$$

WIZ032>034-041-042-053>061-291100-
SOUTHWEST WISCONSIN

CITY           SKY/WX    TMP DP  RH WIND       PRES   REMARKS
LA CROSSE      CLEAR     57  46  66 W13G21    29.72S
SPARTA         CLEAR     41  41  99 CALM      29.72F
VIROQUA        CLEAR     51  43  74 CALM      29.74S
BOSCOBEL       CLEAR     52  47  83 SW5       29.77R
PRAIRIE DU CHI CLEAR     52  46  79 CALM      29.78R
PLATTEVILLE    MOCLDY    54  49  83 SW6       29.80R
$$

WIZ056-057-062-063-064-067-068-291100-
SOUTH CENTRAL WISCONSIN

CITY           SKY/WX    TMP DP  RH WIND       PRES   REMARKS
REEDSBURG      PTCLDY    51  47  87 CALM      29.72S
BARABOO/DELLS  PTCLDY    52  44  75 W5        29.72S
LONE ROCK      NOT AVBL
MINERAL POINT  CLOUDY    55  45  67 SW7       29.78R
MADISON        MOCLDY    57  45  64 VRB5      29.74R
MIDDLETON      CLEAR     53  45  74 W8        29.74R
WATERTOWN      CLEAR     49  48  95 SW6       29.72R
MONROE         CLOUDY    55  45  67 SW10      29.78R
JANESVILLE     MOCLDY    55  48  76 SW7       29.76R
$$

WIZ051-052-058>065-066-070>072-291100-
SOUTHEAST WISCONSIN

CITY           SKY/WX    TMP DP  RH WIND       PRES   REMARKS
MILWAUKEE      PTCLDY    58  49  72 SW10      29.73S
WAUKESHA       CLEAR     52  45  76 SW7       29.74R
MILWAUKEE/TIMM   N/A     52  45  76 S6        29.73S
RACINE         CLEAR     57  47  69 SW9       29.75S
KENOSHA        CLEAR     56  49  77 SW6       29.75S
FOND DU LAC    CLEAR     53  45  74 CALM      29.70S
SHEBOYGAN      PTCLDY    50  48  93 S7        29.69S
WEST BEND      CLEAR     50  46  87 S3        29.71S
JUNEAU         CLEAR     51  47  85 CALM      29.72S
$$

LSZ147-162-291100-
LAKE SUPERIOR

STATION/POSITION TIME  TEMP    WIND        PRES    WAVE
                       AIR SEA DIR/SP/G            HT/PER
                 (UTC) (F)     (DEG/KT/KT) (MB)    (FT/S)
W MID LAKE BUOY  0850   41 37  260/  4/  4 1001.5F   0
DEVILS ISLAND    0900   48     240/ 17/ 19 1002.0F
PORT WING        0930   54     250/ 11/ 16 1003.0S
SAXON HARBOR     0930   54     220/  6/ 12 1002.7S
$$

LMZ867-665-643>646-291100-
LAKE MICHIGAN

STATION/POSITION TIME  TEMP    WIND        PRES    WAVE
                       AIR SEA DIR/SP/G            HT/PER
                 (UTC) (F)     (DEG/KT/KT) (MB)    (FT/S)
CHAMBERS ISLAND  0940   53     200/  5/ 12 1003.4S
N MID LAKE BUOY  0850   42 41  190/  6/  6 1004.5S
NORTHPORT PIER   0940   52     220/  4/  7 1003.7R
SISTER BAY       0906   55     260/ 11/ 13   N/A
KEWAUNEE LAKESHO 0930   56     280/  3/  5 1004.6R
SHEBOYGAN LAKESH 0900   56     240/  8/  9 1005.3F
PORT WASHINGTON  0930   57     280/  5/  7 1006.8F
ATWATER BUOY     0809   57     240/  8/ 10 1006.8R
MILWAUKEE LAKESH 0930   60     230/ 11/ 13   N/A
S MID LAKE BUOY  0850   52 47  250/  8/ 10 1007.0F   0
KENOSHA   LAKESH 0900   61     230/  8/ 10 1007.5
$$

TC  - TEMPERATURE IN CELSIUS
VSB - VISIBILITY IN STATUTE MILES
WCI - WIND CHILL INDEX
HX  - HEAT INDEX





USA.gov is the U.S. government's official web portal to all federal, state and local government web resources and services.